Topeka Forbes, KS

3:51 AM CDT on May 28, 2018 (GMT -0500)
Forbes

Weather History for KFOE - February, 2014

Change the Weather History Date:

Tuesday, February 4, 2014

  Actual Average Record
Temperature  
Mean Temperature 20 °F -  
Max Temperature 28 °F 35 °F 66 °F (1953)
Min Temperature 12 °F 18 °F -11 °F (1979)
Degree Days  
Heating Degree Days 45    
Moisture  
Dew Point 17 °F    
Average Humidity 82    
Maximum Humidity 89    
Minimum Humidity 69    
Precipitation  
Precipitation 0.32 in - - ()
Sea Level Pressure  
Sea Level Pressure 30.10 in    
Wind  
Wind Speed 10 mph (NE)    
Max Wind Speed 23 mph    
Max Gust Speed 31 mph    
Visibility 2 miles    
Events Fog , Snow    
Averages and records for this station are not official NWS values.
T = Trace of Precipitation, MM = Missing Value Source: NWS Daily Summary

Daily Weather History Graph

Daily Weather History Graph

Search for Another Location

Airport or City:

Astronomy

Feb. 04, 2014 Rise Set
Actual Time 7:26 AM CST 5:47 PM CST
Civil Twilight 6:58 AM CST 6:15 PM CST
Nautical Twilight 6:26 AM CST 6:47 PM CST
Astronomical Twilight 5:55 AM CST 7:18 PM CST
Moon 10:07 AM CST (2/4) 11:39 PM CST (2/4)
Length of Visible Light 11h 17m
Length of Day
10h 21m
Waxing Crescent, 29% of the Moon is Illuminated
Feb 4
Waxing Crescent
Feb 6
First Quarter
Feb 14
Full
Feb 22
Last Quarter
Mar 1
New

Hourly Weather History & Observations

Time (CST) Temp. Windchill Dew Point Humidity Pressure Visibility Wind Dir Wind Speed Gust Speed Precip Events Conditions
12:53 AM 28.0 °F 22.8 °F 19.9 °F 72% 30.22 in 10.0 mi East 4.6 mph - N/A   Overcast
1:53 AM 28.0 °F 20.8 °F 19.0 °F 69% 30.21 in 10.0 mi NNE 6.9 mph - N/A   Overcast
2:53 AM 27.0 °F 18.0 °F 19.0 °F 72% 30.20 in 10.0 mi ENE 9.2 mph - N/A   Overcast
3:53 AM 26.1 °F 20.5 °F 18.0 °F 71% 30.22 in 10.0 mi ENE 4.6 mph - N/A   Overcast
4:53 AM 26.1 °F 20.5 °F 19.0 °F 75% 30.23 in 10.0 mi NE 4.6 mph - 0.00 in   Overcast
5:53 AM 25.0 °F 17.1 °F 19.0 °F 78% 30.20 in 9.0 mi East 6.9 mph - N/A   Overcast
6:13 AM 25.0 °F 17.1 °F 19.0 °F 78% 30.16 in 2.5 mi ENE 6.9 mph - 0.00 in Snow Light Snow
6:40 AM 25.0 °F 16.3 °F 19.9 °F 81% 30.14 in 1.5 mi ENE 8.1 mph - 0.00 in Snow Light Snow
6:53 AM 25.0 °F 14.8 °F 19.9 °F 81% 30.16 in 2.0 mi NE 10.4 mph - 0.00 in Snow Light Snow
7:41 AM 24.1 °F 15.2 °F 19.9 °F 84% 30.11 in 3.0 mi NE 8.1 mph - 0.00 in Snow Light Snow
7:53 AM 24.1 °F 15.2 °F 19.9 °F 84% 30.14 in 3.0 mi ENE 8.1 mph - 0.00 in Snow Light Snow
8:07 AM 24.1 °F 14.4 °F 19.9 °F 84% 30.11 in 4.0 mi ENE 9.2 mph - 0.00 in   Overcast
8:31 AM 24.1 °F 13.7 °F 19.0 °F 81% 30.13 in 1.8 mi ENE 10.4 mph - 0.00 in Snow Light Snow
8:36 AM 24.1 °F 15.2 °F 19.9 °F 84% 30.13 in 0.8 mi ENE 8.1 mph - 0.00 in Snow Light Snow
8:53 AM 24.1 °F 13.7 °F 19.9 °F 84% 30.14 in 0.5 mi NE 10.4 mph - 0.01 in Fog , Snow Snow
9:02 AM 24.1 °F 15.2 °F 19.9 °F 84% 30.11 in 0.2 mi NE 8.1 mph - 0.01 in Fog , Snow Snow
9:11 AM 24.1 °F 13.7 °F 19.9 °F 84% 30.10 in 0.5 mi NE 10.4 mph - 0.02 in Fog , Snow Snow
9:40 AM 23.0 °F 12.4 °F 19.0 °F 85% 30.09 in 0.8 mi NE 10.4 mph - 0.02 in Snow Light Snow
9:53 AM 23.0 °F 12.4 °F 19.0 °F 85% 30.13 in 0.8 mi ENE 10.4 mph - 0.03 in Snow Light Snow
10:16 AM 23.0 °F 11.7 °F 19.0 °F 85% 30.09 in 0.5 mi ENE 11.5 mph - 0.00 in Fog , Snow Snow
10:23 AM 23.0 °F 13.1 °F 19.0 °F 85% 30.09 in 0.2 mi ENE 9.2 mph - 0.01 in Fog , Snow Snow
10:41 AM 23.0 °F 12.4 °F 19.0 °F 85% 30.09 in 0.5 mi NE 10.4 mph - 0.01 in Fog , Snow Snow
10:53 AM 23.0 °F 11.7 °F 19.0 °F 85% 30.12 in 0.2 mi NE 11.5 mph - 0.02 in Fog , Snow Snow
11:02 AM 23.0 °F 13.1 °F 19.0 °F 85% 30.08 in 0.2 mi NE 9.2 mph - 0.01 in Fog , Snow Heavy Snow
11:53 AM 23.0 °F 12.4 °F 19.0 °F 85% 30.12 in 0.2 mi NE 10.4 mph - 0.06 in Fog , Snow Snow
12:53 PM 24.1 °F 16.0 °F 19.9 °F 84% 30.10 in 0.2 mi NNE 6.9 mph - 0.07 in Fog , Snow Snow
1:07 PM 23.0 °F 13.1 °F 19.0 °F 85% 30.04 in 0.2 mi NNE 9.2 mph - 0.02 in Fog , Snow Snow
1:23 PM 23.0 °F 11.7 °F 19.0 °F 85% 30.04 in 0.5 mi NNE 11.5 mph - 0.03 in Fog , Snow Snow
1:38 PM 23.0 °F 12.4 °F 19.0 °F 85% 30.03 in 0.2 mi NNE 10.4 mph - 0.04 in Fog , Snow Heavy Snow
1:46 PM 23.0 °F 11.7 °F 19.0 °F 85% 30.03 in 0.2 mi NE 11.5 mph - 0.04 in Fog , Snow Heavy Snow
1:53 PM 23.0 °F 11.7 °F 19.0 °F 85% 30.06 in 0.2 mi NNE 11.5 mph - 0.05 in Fog , Snow Heavy Snow
2:34 PM 23.0 °F 11.1 °F 19.0 °F 85% 30.00 in 0.5 mi NE 12.7 mph - 0.02 in Fog , Snow Snow
2:53 PM 23.0 °F 10.6 °F 18.0 °F 81% 30.03 in 0.5 mi NNE 13.8 mph 25.3 mph 0.02 in Snow Snow
3:13 PM 21.9 °F 7.8 °F 18.0 °F 85% 29.99 in 0.2 mi NNE 17.3 mph 24.2 mph 0.00 in Fog , Snow Snow
3:22 PM 21.9 °F 10.4 °F 18.0 °F 85% 29.99 in 0.5 mi NE 11.5 mph 23.0 mph 0.00 in Fog , Snow Snow
3:44 PM 21.9 °F 11.0 °F 19.0 °F 89% 29.99 in 0.2 mi NE 10.4 mph - 0.01 in Fog , Snow Snow
3:53 PM 21.9 °F 7.8 °F 17.1 °F 82% 30.03 in 0.2 mi NE 17.3 mph 26.5 mph 0.02 in Snow Heavy Snow
3:59 PM 21.9 °F 8.2 °F 17.1 °F 82% 30.00 in 1.0 mi NNE 16.1 mph 26.5 mph 0.00 in Snow Light Snow
4:13 PM 21.9 °F 9.2 °F 17.1 °F 82% 30.00 in 0.8 mi NNE 13.8 mph - 0.00 in Snow Light Snow
4:49 PM 21.2 °F 8.3 °F 17.6 °F 86% 30.01 in 0.5 mi NNE 13.8 mph - 0.01 in Fog , Snow Snow
4:53 PM 21.0 °F 7.6 °F 17.1 °F 85% 30.06 in 0.2 mi NNE 15.0 mph - 0.02 in Fog , Snow Heavy Snow
5:05 PM 21.0 °F 7.1 °F 16.0 °F 81% 30.02 in 0.5 mi NNE 16.1 mph 23.0 mph 0.00 in Snow Snow
5:17 PM 21.0 °F 9.9 °F 16.0 °F 81% 30.02 in 0.5 mi North 10.4 mph - 0.00 in Snow Snow
5:29 PM 19.9 °F 6.7 °F 16.0 °F 85% 30.02 in 0.5 mi NNE 13.8 mph - 0.00 in Fog , Snow Snow
5:41 PM 19.9 °F 7.3 °F 16.0 °F 85% 30.02 in 0.5 mi NNE 12.7 mph - 0.00 in Fog , Snow Snow
5:53 PM 19.9 °F 5.7 °F 16.0 °F 85% 30.07 in 0.5 mi North 16.1 mph - 0.01 in Fog , Snow Snow
6:08 PM 19.9 °F 6.2 °F 15.1 °F 81% 30.04 in 1.0 mi North 15.0 mph - 0.00 in Snow Light Snow
6:18 PM 19.9 °F 6.2 °F 15.1 °F 81% 30.04 in 0.8 mi NNE 15.0 mph - 0.00 in Snow Light Snow
6:53 PM 19.9 °F 5.7 °F 15.1 °F 81% 30.09 in 0.8 mi North 16.1 mph - 0.00 in   Haze
7:11 PM 19.9 °F 5.7 °F 15.1 °F 81% 30.06 in 0.8 mi North 16.1 mph 23.0 mph N/A   Haze
7:53 PM 19.9 °F 5.2 °F 15.1 °F 81% 30.14 in 0.8 mi NNE 17.3 mph 24.2 mph N/A   Haze
8:03 PM 19.9 °F 7.9 °F 15.1 °F 81% 30.10 in 1.0 mi North 11.5 mph 24.2 mph N/A   Haze
8:39 PM 19.9 °F 7.3 °F 16.0 °F 85% 30.11 in 0.8 mi North 12.7 mph - N/A   Mist
8:53 PM 19.9 °F 4.8 °F 16.0 °F 85% 30.16 in 0.8 mi North 18.4 mph - N/A   Mist
9:43 PM 18.0 °F 0.6 °F 12.9 °F 81% 30.14 in 0.8 mi North 23.0 mph 31.1 mph 0.00 in Snow Light Snow
9:53 PM 18.0 °F 2.2 °F 12.9 °F 81% 30.18 in 0.8 mi North 18.4 mph 31.1 mph 0.00 in Snow Light Snow
10:02 PM 18.0 °F 2.6 °F 12.9 °F 81% 30.15 in 1.0 mi North 17.3 mph 26.5 mph 0.00 in Snow Light Snow
10:46 PM 16.0 °F -0.9 °F 10.0 °F 77% 30.16 in 0.8 mi North 19.6 mph 31.1 mph 0.01 in Snow Light Snow
10:53 PM 15.1 °F -2.0 °F 10.9 °F 84% 30.21 in 0.5 mi North 19.6 mph 25.3 mph 0.01 in Fog , Snow Snow
11:12 PM 14.0 °F -3.4 °F 9.0 °F 80% 30.17 in 1.0 mi North 19.6 mph 29.9 mph 0.00 in Snow Light Snow
11:43 PM 12.9 °F -4.9 °F 7.0 °F 77% 30.20 in 2.0 mi North 19.6 mph 28.8 mph 0.00 in Snow Light Snow
11:53 PM 12.9 °F -5.7 °F 7.0 °F 77% 30.26 in 3.0 mi North 21.9 mph 26.5 mph 0.00 in Snow Light Snow